#timestamp,LO_Frequency,Hit,StdDev 
1592740815.8,286046998.5,N
1592740835.6,286046998.4,N
1592740855.5,286047000.9,N
1592740875.3,286047001.0,N
1592740895.2,286047000.3,N
1592740915.9,286047001.1,N
1592740935.7,286047001.1,N
1592740955.6,286047001.1,N
1592740975.4,286046998.9,N
1592740995.2,286046998.8,N
1592741015.1,286046996.5,N
1592741016.0,286046996.5,N
1592741035.8,286046997.2,N
1592741055.7,286046997.1,N
1592741075.5,286046999.1,N
1592741095.3,286046998.3,N
1592741115.2,286046998.5,N
1592741135.9,286047001.2,N
1592741155.7,286046998.5,N
1592741175.6,286046999.0,N
1592741195.4,286046999.5,N
1592741215.3,286046997.2,N
1592741235.1,286046997.2,N
1592741236.0,286046997.2,N
1592741255.8,286046997.2,N
1592741275.7,286046997.0,N
1592741295.5,286046999.6,N
1592741315.3,286046999.3,N
1592741335.2,286046999.0,N
1592741355.0,286046999.3,N
1592741355.9,286046999.3,N
1592741375.8,286046999.6,N
1592741395.6,286046999.2,N
1592741415.4,286046999.6,N
1592741435.3,286046997.2,N
1592741455.1,286046997.0,N
1592741475.8,286046996.6,N
1592741495.7,286046999.6,N
1592741515.5,286046996.5,N
1592741535.4,286046998.0,N
1592741555.2,286046994.9,Y
1592741575.0,286046996.8,P
1592741575.9,286046996.8,P
1592741595.8,286046997.7,P
1592741615.6,286046997.7,Y
1592741635.4,286047000.7,P
1592741655.3,286046998.1,N
1592741675.1,286047000.9,N
1592741695.9,286047000.5,N
1592741715.7,286047000.0,N
1592741735.5,286047000.2,N
1592741755.4,286047002.8,N
1592741775.2,286047000.1,N
1592741795.0,286047002.7,N
1592741795.9,286047002.7,N
1592741815.8,286047000.1,N
1592741835.6,286047000.0,N
1592741855.5,286046999.9,N
1592741875.3,286047000.2,N
1592741895.1,286047000.2,N
1592741915.9,286047000.9,N
1592741935.7,286046998.6,N
1592741955.6,286047001.0,N
1592741975.4,286047000.8,N
1592741995.2,286047001.0,N
1592742015.1,286047000.3,N
1592742016.0,286047000.3,N
1592742035.8,286047000.1,N
1592742055.6,286047000.5,N
1592742075.5,286046998.8,N
1592742095.3,286046998.8,N
1592742115.2,286046998.8,N
1592742135.9,286046998.5,N
1592742155.7,286047001.2,N
1592742175.6,286047002.6,N
1592742195.4,286047000.1,N
1592742215.2,286047000.2,N
1592742235.1,286046998.2,N
1592742236.0,286046998.2,N
1592742255.8,286046999.4,N
1592742275.7,286046998.9,N
1592742295.5,286046998.6,N
1592742315.3,286047000.5,N
1592742335.2,286047000.2,N
1592742355.0,286047000.0,N
1592742355.9,286047000.0,N
1592742375.7,286047000.2,N
1592742395.6,286047002.7,N
1592742415.4,286047002.4,N
1592742435.3,286047002.3,N
1592742455.1,286047002.8,N
1592742456.0,286047002.8,N
1592742475.8,286047002.7,N
1592742495.7,286047001.5,N
1592742515.5,286047002.1,N
1592742535.3,286047001.7,N
1592742555.2,286047002.1,N
1592742575.0,286047001.9,N
1592742575.9,286047001.9,N
1592742595.8,286047001.7,N
1592742615.6,286047001.4,N
1592742635.4,286047002.1,N
1592742655.3,286047001.6,N
1592742675.1,286047002.2,N
1592742695.8,286046999.8,N
1592742715.7,286046999.8,N
1592742735.5,286047002.2,N
1592742755.4,286047001.6,N
1592742775.2,286047002.3,N
1592742795.0,286047002.3,N
1592742795.9,286047002.3,N
1592742815.8,286046999.8,N
1592742835.6,286047002.8,N
1592742855.4,286047000.5,N
1592742875.3,286046999.9,N
1592742895.1,286047000.5,N
1592742915.9,286047000.6,N
1592742935.7,286046999.8,N
1592742955.5,286047000.1,N
1592742975.4,286047000.9,N
1592742995.2,286047000.9,N
1592743015.0,286047000.6,N
1592743016.0,286047000.6,N
1592743035.8,286046999.8,N
1592743055.6,286046999.8,N
1592743075.5,286047002.1,N
1592743095.3,286047001.8,N
1592743115.1,286047000.2,N
1592743135.9,286046999.7,N
1592743155.7,286047000.1,N
1592743175.6,286047002.8,N
1592743195.4,286047000.3,N
1592743215.2,286047000.0,N
1592743235.1,286046999.8,N
1592743236.0,286046999.8,N
1592743255.8,286047000.3,N
1592743275.7,286047002.7,N
1592743295.5,286047002.4,N
1592743315.3,286047002.6,N
1592743335.2,286047001.7,N
1592743355.9,286047001.7,N
1592743375.7,286047001.3,N
1592743395.6,286047003.9,Y
1592743415.4,286047001.3,P
1592743435.3,286047004.4,P
1592743455.1,286047004.3,N
1592743456.0,286047004.3,N
1592743475.8,286047001.5,N
1592743495.7,286047001.8,N
1592743515.5,286047001.8,N
1592743535.3,286047002.0,N
1592743555.2,286047002.4,N
1592743575.0,286047002.4,N
1592743575.9,286047002.4,N
1592743595.8,286047001.9,N
1592743615.6,286047004.4,Y
1592743635.4,286047001.2,P
1592743655.3,286047000.8,N
1592743675.1,286047000.5,N
1592743695.8,286047000.3,N
1592743715.7,286047000.0,N
1592743735.5,286046999.8,N
1592743755.4,286047002.8,Y
1592743775.2,286047000.0,P
1592743795.0,286047000.4,N
1592743795.9,286047000.4,N
1592743815.8,286046999.7,N
1592743835.6,286046998.7,Y
1592743855.5,286046998.2,P
1592743875.3,286047001.1,N
1592743895.1,286046998.2,N
1592743915.9,286046998.4,N
1592743935.7,286046999.1,N
1592743955.5,286046998.4,N
1592743975.4,286046998.2,N
1592743995.2,286046998.1,N
1592744015.1,286046998.5,N
1592744016.0,286046998.5,N
1592744035.8,286046998.6,N
1592744055.6,286046998.6,N
1592744075.5,286046998.2,N
1592744095.3,286047000.6,N
1592744115.1,286046998.1,N
1592744135.9,286046998.7,N
1592744155.7,286046998.4,N
1592744175.6,286047001.0,N
1592744195.4,286046998.8,N
1592744215.2,286046998.8,N
1592744235.1,286046998.3,N
1592744236.0,286046998.3,N
1592744255.8,286046998.6,N
1592744275.7,286046998.5,N
1592744295.5,286047001.2,N
1592744315.3,286047000.0,N
1592744335.2,286047000.6,N
1592744355.0,286047000.6,N
1592744355.9,286047000.6,N
1592744375.8,286046998.5,N
1592744395.6,286046999.9,N
